Weather Roundup
Issued by NWS Corpus Christi, TX

Home | Current Version | Previous Version | Text Only | Print | Product List | Glossary On
Versions: 1 2 3 4 5 6 7 8 9 10 11 12 13 14 15 16 17 18 19 20 21 22 23 24 25 26 27 28 29 30 31 32 33 34 35 36 37 38 39 40 41 42 43 44 45 46 47 48 49 50
000
ASUS44 KCRP 170410
HRRCRP

SOUTH TEXAS REGIONAL WEATHER ROUNDUP
NATIONAL WEATHER SERVICE CORPUS CHRISTI TX
1000 PM CST MON JAN 16 2017


TXZ229>244-170500-
...CORPUS CHRISTI AREA OBSERVATIONS...

CITY           SKY/WX    TMP DP  RH WIND       PRES   REMARKS
CORPUS CHRISTI CLOUDY    71  68  90 S12       29.98R
NAS CORPUS CHR NOT AVBL
ROCKPORT       CLOUDY    70  68  93 SE9       29.97R FOG
KINGSVILLE NAS CLOUDY    72  69  90 SE10      29.98R
ALICE          CLOUDY    69  66  90 SE7       29.96R
ORANGE GROVE   NOT AVBL
FALFURRIAS     CLOUDY    73  64  72 S7        29.97S
$$

...VICTORIA AREA OBSERVATIONS...

CITY           SKY/WX    TMP DP  RH WIND       PRES   REMARKS
VICTORIA       CLOUDY    71  69  93 SE10      29.99S
BEEVILLE       FAIR      68  68 100 SE7       29.98R
PLEASANTON     CLOUDY    66  53  64 NE5       29.99S
SAN ANTONIO    CLOUDY    63  53  70 NE6       30.01R
$$

...LAREDO AREA OBSERVATIONS...

CITY           SKY/WX    TMP DP  RH WIND       PRES   REMARKS
LAREDO         CLOUDY    66  55  67 CALM      29.98S
COTULLA        CLOUDY    68  56  65 E6        29.98R
DEL RIO        CLOUDY    58  45  62 CALM      29.99R
MCALLEN        CLOUDY    74  68  81 S7        29.97S
HEBBRONVILLE   CLOUDY    66  61  83 NW3       29.98F
$$

...OTHER TEXAS OBSERVATIONS...

CITY           SKY/WX    TMP DP  RH WIND       PRES   REMARKS
BROWNSVILLE    PTCLDY    71  68  90 SE10      29.98S
HOUSTON        CLOUDY    72  68  87 S7        30.01S
COL. STATION   CLOUDY    60  58  92 NE9       30.02S
AUSTIN         CLOUDY    61  56  83 E5        30.02R
WACO           CLOUDY    59  53  80 N5        30.04R
FORT WORTH     CLOUDY    51  42  71 N7        30.05R
WICHITA FALLS  CLEAR     39  35  86 NW8       30.09R
LUBBOCK        CLOUDY    41  35  79 NE10      30.11R
EL PASO        MOCLDY    48  38  68 E6        30.04S
$$

...MARINE OBSERVATIONS...

STATION/POSITION TIME  SKY/WX   TEMP    WIND        PRES    VSBY  WAVE   SWELL
                                AIR SEA DIR/SP/G                  HT/PER HT/PER
                 (UTC)          (F)     (DEG/KT/KT) (MB)    (MI)  (FT/S) (FT/S)
PORT ARANSAS     0300            68 63  130/ 11/ 12 1014.6R
BUOY 90 E PORT A 0350            74 73  130/ 16/ 17 1016.0R         5/ 7
BUOY 45 SE BAFFI 0350            72     150/ 14/ 16 1014.5R         5/ 7   3/ 7
BUOY 200 E PT IS 0350            75 75  140/ 12/ 16 1017.8R         6/ 7   5/ 7
BUOY 15 E GALVES 0350            68 63  150/ 10/ 12 1016.7F         4/ 7   3/ 7
$$




USA.gov is the U.S. government's official web portal to all federal, state and local government web resources and services.